IR1AA-3 Weather Reports


time (UTC)temp
C
wind
direction
speed
KPH
gust
KPH
rain 1hr
cm
rain 24hr
cm
rain mn
cm
humidity
%
barometer
mb
20260503182000 17 0.0 0.0 0.00 0.00 0.00 99 1017.1
20260503175000 17 0.0 0.0 0.00 0.00 0.00 99 1017.1
20260503173829 17 0.0 0.0 0.00 0.00 0.00 99 1017.1
20260503170829 17 0.0 0.0 0.00 0.00 0.00 99 1017.1
20260503150827 19 0.0 0.0 0.00 0.00 0.00 99 1017.1
20260503130825 20 0.0 0.0 0.00 0.00 0.00 85 1018.1
20260503110824 19 0.0 0.0 0.00 0.00 0.00 99 1019.3
20260503071645 16 0.0 0.0 0.00 0.00 0.00 99 1019.3
20260503054644 17 0.0 0.0 0.00 0.00 0.00 68 1018.9
20260503051644 15 0.0 0.0 0.00 0.00 0.00 99 1018.9
20260503050056 14 0.0 0.0 0.00 0.00 0.00 98 1018.9
20260503043056 13 0.0 0.0 0.00 0.00 0.00 88 1019.0
20260503040348 13 0.0 0.0 0.00 0.00 0.00 84 1018.9
20260503033347 13 0.0 0.0 0.00 0.00 0.00 85 1019.1
20260503030347 14 0.0 0.0 0.00 0.00 0.00 79 1019.3
20260503023347 14 0.0 0.0 0.00 0.00 0.00 79 1019.7
20260503020346 14 0.0 0.0 0.00 0.00 0.00 80 1019.2
20260503013346 14 0.0 0.0 0.00 0.00 0.00 84 1019.3
20260503010346 15 0.0 0.0 0.00 0.00 0.00 73 1019.4
20260503003345 15 0.0 0.0 0.00 0.00 0.00 73 1019.7
20260503000345 15 0.0 0.0 0.00 0.00 0.00 72 1019.9
20260502233345 15 0.0 0.0 0.00 0.00 0.00 73 1020.2
20260502230344 15 0.0 0.0 0.00 0.00 0.00 70 1020.2
20260502223344 15 0.0 0.0 0.00 0.00 0.00 70 1020.2
20260502222319 15 0.0 0.0 0.00 0.00 0.00 70 1020.4
20260502215319 16 0.0 0.0 0.00 0.00 0.00 72 1020.5
20260502213120 16 0.0 0.0 0.00 0.00 0.00 69 1020.6
20260502210120 16 0.0 0.0 0.00 0.00 0.00 66 1020.6
20260502203120 16 0.0 0.0 0.00 0.00 0.00 64 1020.7
20260502200119 16 0.0 0.0 0.00 0.00 0.00 63 1020.8
20260502193119 17 0.0 0.0 0.00 0.00 0.00 65 1020.5
20260502190119 17 0.0 0.0 0.00 0.00 0.00 80 1020.3